Accueil
METAR-TAF:

METAR-TAF

Aéroports :

Sion, Suisse

Aéroport de Sion

latitude: 46-13-11N, longitude: 007-19-36E, altitude: 483 m

Observation

Le bulletin a été fait il y a 14 minutes, à 07:50 UTC
Vent calme
Température -2°C
Humidité 86%
Pression 1009 hPa
Visibilité: 6000 m
Quelques nuages à une hauteur de 8000 ft

METAR: LSMS 240750Z 00000KT 6000 FEW080 M02/M04 Q1009 RMK WHT

Heure: 09:04 (08:04 UTC)


TAF: absent

Observations et prévisions météorologiques de plus de 4000 aéroports (messages METAR et TAF).

Les stations disponibles sont représentées par des disques jaunes et rouges sur la carte.

Passer la souris dessus pour voir le nom de la station.

Cliquer dessus pour voir les observations et prévisions météorologiques.

Pour changer de carte: cliquez sur les boutons verts avec une croix noire pour zoomer, sur le bouton vert avec un tiret pour effectuer un zoom arrière, ou sur les flèches vertes pour les cartes adjacentes.


METAR-TAF: